Location: New Greens
(51.7702°N, 0.3379°W)
Time: 08:32:31
(UTC+00:00)

N. Korean satellite - Visible Passes

Search period start: 19 January 2019 00:00
Search period end: 29 January 2019 00:00
Orbit: 458 x 509 km, 97.2° (Epoch: 19 January)

Date Brightness Start Highest point End Pass type
(mag) Time Alt. Az. Time Alt. Az. Time Alt. Az.
19 Jan 9.8 05:18:57 10° NE 05:21:20 16° E 05:23:39 10° SE visible
19 Jan 6.7 06:51:25 10° N 06:55:05 53° WNW 06:58:42 10° SSW visible
19 Jan 7.2 17:32:01 10° S 17:35:39 61° W 17:39:21 10° NNW visible
20 Jan 6.7 06:26:42 10° NNE 06:30:27 83° ESE 06:34:09 10° SSW visible
20 Jan 6.6 17:07:19 10° SSE 17:10:58 71° ENE 17:14:43 10° N visible
20 Jan 10.1 18:43:23 10° WSW 18:44:54 12° W 18:46:27 10° WNW visible
21 Jan 7.9 06:02:09 10° NNE 06:05:44 44° E 06:09:17 10° S visible
21 Jan 9.5 18:17:07 10° SW 18:19:59 21° W 18:22:54 10° NW visible
22 Jan 9.1 05:37:50 10° NE 05:40:56 24° E 05:44:00 10° SSE visible
22 Jan 7.3 07:11:03 10° N 07:14:26 33° WNW 07:17:46 10° SW visible
22 Jan 8.4 17:51:42 10° SSW 17:55:10 37° W 17:58:40 10° NNW visible
23 Jan 10.0 05:14:00 10° NE 05:16:02 14° E 05:18:03 10° ESE visible
23 Jan 6.6 06:46:11 10° N 06:49:52 60° WNW 06:53:29 10° SSW visible
23 Jan 7.0 17:26:44 10° S 17:30:25 70° W 17:34:09 10° NNW visible
24 Jan 6.9 06:21:29 10° NNE 06:25:13 73° ESE 06:28:52 10° S visible
24 Jan 10.0 18:37:39 10° WSW 18:39:37 14° W 18:41:35 10° NW visible
25 Jan 8.2 05:56:58 10° NNE 06:00:28 38° E 06:03:55 10° SSE visible
25 Jan 9.3 18:11:39 10° SSW 18:14:42 24° W 18:17:47 10° NW visible
26 Jan 9.3 05:32:43 10° NE 05:35:38 22° E 05:38:31 10° SE visible
26 Jan 7.2 07:05:46 10° N 07:09:13 37° WNW 07:12:35 10° SW visible
26 Jan 8.1 17:46:20 10° S 17:49:53 42° W 17:53:28 10° NNW visible
27 Jan 10.1 05:09:06 10° ENE 05:10:43 12° E 05:12:18 10° ESE visible
27 Jan 6.5 06:40:56 10° N 06:44:37 68° WNW 06:48:14 10° SSW visible
27 Jan 6.8 17:21:26 10° S 17:25:09 79° WSW 17:28:55 10° NNW visible
28 Jan 7.1 06:16:14 10° NNE 06:19:56 64° E 06:23:32 10° S visible
28 Jan 10.0 18:32:00 10° SW 18:34:17 15° W 18:36:35 10° NW visible
